Tracking 18980 objects as of 21-Feb-2018
HD Live streaming from Space Station
objects crossing your sky now

COSMOS 1754

Track COSMOS 1754 now!
10-day predictions
COSMOS 1754 is classified as:


NORAD ID: 16764
Int'l Code: 1986-042G
Perigee: 1,444.4 km
Apogee: 1,477.5 km
Inclination: 74.0 °
Period: 115.0 minutes
Semi major axis: 7831 km
RCS: 0.7328 m2 (medium)
Launch date: June 6, 1986
Source: Commonwealth of Independent States (former USSR) (CIS)
Launch site: PLESETSK MISSILE AND SPACE COMPLEX (PKMTR)
aabbcc
Your satellite tracking list
Your tracking list is empty




NASA's NSSDC Master Catalog

Two Line Element Set (TLE):
1 16764U 86042G   18050.90011598 -.00000001 +00000-0 +98442-4 0  9994
2 16764 074.0210 328.7217 0021087 277.5982 146.8951 12.52562193274607
Source of the keplerian elements: AFSPC